GW2702 Weather Reports


time (UTC)temp
F
wind
direction
speed
knots
gust
knots
rain 1hr
in
rain 24hr
in
rain mn
in
humidity
%
barometer
mb
20260504232139 83 189 1.7 6.1 0.00 0.00 0.00 39
20260504231636 82 161 1.7 5.2 0.00 0.00 0.00 39
20260504231132 83 141 2.6 5.2 0.00 0.00 0.00 37
20260504230628 84 225 0.9 4.3 0.00 0.00 0.00 37
20260504230127 81 199 0.9 5.2 0.00 0.00 0.00 38
20260504225625 82 127 2.6 5.2 0.00 0.00 0.00 37
20260504225121 82 209 0.9 4.3 0.00 0.00 0.00 38
20260504224618 81 214 0.0 4.3 0.00 0.00 0.00 38
20260504224114 81 178 1.7 5.2 0.00 0.00 0.00 36
20260504223612 82 180 1.7 5.2 0.00 0.00 0.00 38
20260504223107 82 155 0.9 1.7 0.00 0.00 0.00 36
20260504222605 80 184 0.0 2.6 0.00 0.00 0.00 39
20260504222102 81 212 1.7 5.2 0.00 0.00 0.00 38
20260504221559 81 141 2.6 5.2 0.00 0.00 0.00 37
20260504221055 82 160 0.9 2.6 0.00 0.00 0.00 38
20260504220552 80 195 1.7 5.2 0.00 0.00 0.00 39
20260504220049 82 230 2.6 6.1 0.00 0.00 0.00 40
20260504215546 81 147 0.9 5.2 0.00 0.00 0.00 40
20260504215043 81 163 1.7 7.0 0.00 0.00 0.00 40
20260504214539 80 168 2.6 5.2 0.00 0.00 0.00 38
20260504214036 79 130 3.5 6.1 0.00 0.00 0.00 37
20260504213532 78 138 2.6 7.0 0.00 0.00 0.00 39
20260504213029 79 198 1.7 5.2 0.00 0.00 0.00 38
20260504212525 80 160 2.6 6.1 0.00 0.00 0.00 38
20260504212023 80 146 1.7 2.6 0.00 0.00 0.00 38
20260504211519 81 128 0.9 2.6 0.00 0.00 0.00 37
20260504211016 81 179 1.7 5.2 0.00 0.00 0.00 40
20260504210513 81 180 1.7 2.6 0.00 0.00 0.00 41
20260504210010 80 131 5.2 7.8 0.00 0.00 0.00 40
20260504205508 79 174 1.7 6.1 0.00 0.00 0.00 42
20260504205006 80 172 0.9 6.1 0.00 0.00 0.00 42
20260504204504 79 127 2.6 6.1 0.00 0.00 0.00 42
20260504204003 81 164 0.9 4.3 0.00 0.00 0.00 42
20260504203500 80 220 2.6 4.3 0.00 0.00 0.00 41
20260504202956 79 191 0.9 5.2 0.00 0.00 0.00 43
20260504202452 80 155 4.3 6.1 0.00 0.00 0.00 40
20260504201949 81 214 0.9 5.2 0.00 0.00 0.00 41
20260504201446 80 210 1.7 5.2 0.00 0.00 0.00 42
20260504200944 80 185 0.9 2.6 0.00 0.00 0.00 39
20260504200441 78 176 2.6 4.3 0.00 0.00 0.00 41
20260504195937 80 193 2.6 4.3 0.00 0.00 0.00 41
20260504195433 79 171 1.7 4.3 0.00 0.00 0.00 40
20260504194930 78 206 0.9 4.3 0.00 0.00 0.00 44
20260504194426 79 191 1.7 2.6 0.00 0.00 0.00 41
20260504193922 80 204 1.7 4.3 0.00 0.00 0.00 41
20260504193419 79 176 3.5 4.3 0.00 0.00 0.00 41
20260504192918 79 168 1.7 4.3 0.00 0.00 0.00 41
20260504192415 77 164 2.6 5.2 0.00 0.00 0.00 44
20260504191914 76 231 2.6 5.2 0.00 0.00 0.00 43
20260504191411 76 193 1.7 4.3 0.00 0.00 0.00 44
20260504190906 76 171 3.5 5.2 0.00 0.00 0.00 44
20260504190402 75 174 0.0 4.3 0.00 0.00 0.00 45
20260504185859 76 174 3.5 6.1 0.00 0.00 0.00 44
20260504185356 75 201 1.7 4.3 0.00 0.00 0.00 46
20260504184852 78 174 2.6 4.3 0.00 0.00 0.00 43
20260504184348 76 163 2.6 4.3 0.00 0.00 0.00 46
20260504183844 77 238 1.7 4.3 0.00 0.00 0.00 46
20260504183342 76 160 0.0 1.7 0.00 0.00 0.00 47
20260504182839 77 171 2.6 4.3 0.00 0.00 0.00 45
20260504182337 76 175 1.7 2.6 0.00 0.00 0.00 46
20260504181833 77 176 2.6 2.6 0.00 0.00 0.00 45
20260504181331 78 163 0.9 4.3 0.00 0.00 0.00 45
20260504180830 79 96 1.7 1.7 0.00 0.00 0.00 45
20260504180328 79 214 0.0 1.7 0.00 0.00 0.00 42
20260504175826 79 128 0.0 0.0 0.00 0.00 0.00 44
20260504175322 78 227 0.9 0.9 0.00 0.00 0.00 45
20260504174820 75 167 0.0 1.7 0.00 0.00 0.00 44
20260504174317 76 177 0.9 1.7 0.00 0.00 0.00 46
20260504173814 76 314 1.7 2.6 0.00 0.00 0.00 46
20260504173311 76 117 0.0 4.3 0.00 0.00 0.00 47
20260504172808 77 49 0.9 0.9 0.00 0.00 0.00 45
20260504172305 75 158 0.9 1.7 0.00 0.00 0.00 50
20260504171800 75 133 0.0 0.0 0.00 0.00 0.00 53
20260504171258 75 335 1.7 1.7 0.00 0.00 0.00 54
20260504170755 74 215 0.9 0.9 0.00 0.00 0.00 55
20260504170252 75 32 2.6 2.6 0.00 0.00 0.00 47
20260504160210 69 151 1.7 1.7 0.00 0.00 0.00 61
20260504151138 65 151 0.0 0.9 0.00 0.00 0.00 68
20260504150636 64 164 0.0 0.9 0.00 0.00 0.00 70
20260504150132 63 150 0.9 1.7 0.00 0.00 0.00 72
20260504141101 53 174 0.0 0.0 0.00 0.00 0.00 93
20260504140557 52 180 0.0 0.0 0.00 0.00 0.00 93
20260504130521 51 162 0.0 0.0 0.00 0.00 0.00 95
20260504110409 53 169 0.0 0.0 0.00 0.00 0.00 93
20260504100326 53 220 0.0 0.0 0.00 0.00 0.00 92
20260504081720 54 219 0.0 0.0 0.00 0.00 0.00 88
20260504081216 54 179 0.0 0.0 0.00 0.00 0.00 87
20260504080712 54 182 0.0 0.0 0.00 0.00 0.00 87
20260504080209 54 179 0.0 0.0 0.00 0.00 0.00 87
20260504070137 56 186 0.0 0.0 0.00 0.00 0.00 84
20260504050525 59 176 0.0 0.9 0.00 0.00 0.00 77
20260504050022 60 189 0.0 0.9 0.00 0.00 0.00 76
20260504045519 60 183 0.0 0.9 0.00 0.00 0.00 75
20260504045014 60 194 0.9 0.9 0.00 0.00 0.00 74
20260504044512 61 194 0.0 0.9 0.00 0.00 0.00 73
20260504044009 61 190 0.0 0.0 0.00 0.00 0.00 73
20260504043506 62 178 0.0 0.0 0.00 0.00 0.00 71
20260504043004 62 178 0.0 0.0 0.00 0.00 0.00 70
20260504042500 62 173 0.0 0.0 0.00 0.00 0.00 70
20260504041957 62 172 0.0 0.0 0.00 0.00 0.00 70
20260504041453 63 195 0.0 0.0 0.00 0.00 0.00 70
20260504040949 63 176 0.0 0.0 0.00 0.00 0.00 70
20260504040447 64 188 0.0 0.0 0.00 0.00 0.00 70
20260504035943 64 179 0.0 0.0 0.00 0.00 0.00 68
20260504035440 65 176 0.0 0.0 0.00 0.00 0.00 68
20260504034937 65 174 0.0 0.0 0.00 0.00 0.00 68
20260504034434 65 175 0.0 0.0 0.00 0.00 0.00 68
20260504033931 66 194 0.0 0.0 0.00 0.00 0.00 66
20260504033429 66 178 0.0 0.9 0.00 0.00 0.00 63
20260504032926 67 194 0.9 0.9 0.00 0.00 0.00 63
20260504032423 69 170 0.0 0.9 0.00 0.00 0.00 61
20260504031919 70 170 0.0 0.0 0.00 0.00 0.00 56
20260504031417 70 175 0.0 0.0 0.00 0.00 0.00 54
20260504030913 71 168 0.0 0.0 0.00 0.00 0.00 52
20260504030410 71 159 0.0 0.0 0.00 0.00 0.00 50
20260504025906 71 165 0.0 0.0 0.00 0.00 0.00 50
20260504025403 72 164 0.0 0.9 0.00 0.00 0.00 49
20260504024900 72 182 0.0 1.7 0.00 0.00 0.00 48
20260504024356 72 152 0.0 0.9 0.00 0.00 0.00 49
20260504023854 72 151 0.9 0.9 0.00 0.00 0.00 48
20260504023350 72 172 0.0 2.6 0.00 0.00 0.00 48
20260504022845 73 200 0.9 1.7 0.00 0.00 0.00 48
20260504022343 73 119 2.6 2.6 0.00 0.00 0.00 48
20260504021839 74 143 0.0 1.7 0.00 0.00 0.00 49
20260504021337 75 216 0.9 1.7 0.00 0.00 0.00 47
20260504020833 76 174 0.0 0.9 0.00 0.00 0.00 47
20260504020330 75 173 0.0 2.6 0.00 0.00 0.00 47
20260504015826 75 210 0.9 2.6 0.00 0.00 0.00 47
20260504015322 76 168 1.7 4.3 0.00 0.00 0.00 47
20260504014819 77 168 2.6 5.2 0.00 0.00 0.00 46
20260504014315 78 145 2.6 4.3 0.00 0.00 0.00 44
20260504013813 80 200 0.9 2.6 0.00 0.00 0.00 40
20260504013310 80 147 0.0 0.0 0.00 0.00 0.00 36
20260504012807 80 164 0.0 0.9 0.00 0.00 0.00 37
20260504012305 80 174 0.0 0.9 0.00 0.00 0.00 37
20260504011802 80 150 0.9 0.9 0.00 0.00 0.00 38
20260504011258 81 187 0.0 0.9 0.00 0.00 0.00 37
20260504010754 82 202 0.0 1.7 0.00 0.00 0.00 35
20260504010250 82 156 0.0 1.7 0.00 0.00 0.00 34
20260504005747 84 168 0.9 1.7 0.00 0.00 0.00 36
20260504005244 82 113 0.0 1.7 0.00 0.00 0.00 35
20260504004741 83 183 0.0 1.7 0.00 0.00 0.00 35
20260504004238 81 134 1.7 1.7 0.00 0.00 0.00 36
20260504003735 80 278 0.9 1.7 0.00 0.00 0.00 38
20260504003232 80 53 1.7 2.6 0.00 0.00 0.00 37
20260504002728 82 19 0.9 5.2 0.00 0.00 0.00 37
20260504002225 81 287 0.9 1.7 0.00 0.00 0.00 37
20260504001723 83 172 0.0 1.7 0.00 0.00 0.00 36
20260504001220 85 107 0.9 1.7 0.00 0.00 0.00 34
20260504000717 84 142 0.0 0.0 0.00 0.00 0.00 35
20260504000214 82 157 0.0 1.7 0.00 0.00 0.00 36
20260503235712 80 125 0.0 0.9 0.00 0.00 0.00 35
20260503235209 83 175 0.0 2.6 0.00 0.00 0.00 35
20260503234706 84 178 0.0 1.7 0.00 0.00 0.00 34
20260503234205 83 168 0.0 0.9 0.00 0.00 0.00 34
20260503233701 83 247 0.9 2.6 0.00 0.00 0.00 35
20260503233157 81 175 0.9 7.0 0.00 0.00 0.00 37
20260503232654 82 167 0.0 0.9 0.00 0.00 0.00 37